Home > Weather > Sidney > Past weeks

Flag for USA Weather for the Past 2 Weeks in Sidney, Montana, USA

Now
81 °F

Sunny.


Feels Like: 79 °F
Forecast: 47 / 85 °F
Wind: 12 mph from South

Location: Sidney-Richland

Current Time: May 4, 2016 at 1:28:50 PM

Latest Report: May 4, 2016 at 12:35 PM


Visibility: 10 mi

Pressure: 29.99 "Hg (28.04 "Hg at 591m altitude)

Humidity: 24%

Dew Point: 41 °F

Location of SidneyLocation

Historic Weather in Sidney — Graph

°F

Sidney Temperature Yesterday

Maximum temperature yesterday: 81 °F (at 4:35 PM)
Minimum temperature yesterday: 37 °F (at 4:35 AM)
Average temperature yesterday: 61 °F

High & Low Weather Summary for the Past Weeks

 TemperatureHumidityPressure
High81 °F (May 3, 4:35 PM)93% (Apr 20, 12:55 AM)30.36 "Hg (Apr 20, 12:55 AM)
Low30 °F (May 1, 5:35 AM)21% (May 3, 4:35 PM)29.66 "Hg (Apr 23, 3:35 PM)
Average50 °F58%30.02 "Hg
* Reported Apr 19 12:15 PM — May 4 12:15 PM, Sidney, Weather by CustomWeather, © 2016

Note: Actual official high and low records may vary slightly from our data, if they occured in-between our weather recording intervals... More about our weather records

Advertising

Sidney Weather History for the Previous 24 Hours

Scroll right to see more
 ConditionsComfort  
Time TempWeatherWind HumidityBarometerVisibility
12:15 PM
Wed, May 4
81 °FSunny.10 mph24%30.00 "Hg10 mi
11:55 AM79 °FSunny.10 mph28%30.01 "Hg10 mi
11:35 AM79 °FSunny.14 mph30%30.01 "Hg10 mi
11:15 AM75 °FSunny.12 mph34%30.02 "Hg10 mi
10:35 AM72 °FSunny.10 mph38%30.03 "Hg9 mi
10:15 AM70 °FSunny.13 mph40%30.04 "Hg9 mi
9:55 AM68 °FSunny.13 mph43%30.04 "Hg7 mi
9:35 AM66 °FSunny.10 mph46%30.05 "Hg10 mi
9:15 AM64 °FSunny.13 mph49%30.05 "Hg10 mi
8:35 AM61 °FSunny.9 mph52%30.06 "Hg10 mi
8:15 AM59 °FSunny.12 mph55%30.07 "Hg10 mi
7:55 AM57 °FSunny.9 mph59%30.07 "Hg10 mi
7:35 AM54 °FSunny.10 mph67%30.08 "Hg10 mi
7:15 AM50 °FSunny.6 mph76%30.08 "Hg10 mi
6:55 AM46 °FSunny.7 mph82%30.08 "Hg10 mi
6:15 AM43 °FClear.3 mph81%30.08 "Hg10 mi
4:55 AM45 °FClear.No wind76%30.07 "Hg10 mi
4:35 AM43 °FClear.No wind81%30.07 "Hg10 mi
4:15 AM45 °FClear.No wind81%30.08 "Hg10 mi
3:35 AM45 °FClear.No wind81%30.08 "Hg10 mi
3:15 AM45 °FClear.No wind81%30.07 "Hg10 mi
2:55 AM45 °FClear.No wind81%30.07 "Hg10 mi
1:55 AM46 °FClear.No wind76%30.07 "Hg10 mi
1:35 AM46 °FClear.No wind76%30.07 "Hg10 mi
1:15 AM48 °FClear.No wind71%30.07 "Hg10 mi
12:35 AM52 °FClear.No wind62%30.06 "Hg10 mi
12:15 AM54 °FClear.No wind58%30.06 "Hg10 mi
11:35 PM
Tue, May 3
54 °FClear.3 mph63%30.06 "Hg10 mi
11:15 PM55 °FClear.5 mph55%30.06 "Hg10 mi
10:35 PM55 °FClear.No wind59%30.06 "Hg10 mi
9:55 PM59 °FClear.No wind48%30.05 "Hg10 mi
9:35 PM61 °FClear.3 mph45%30.05 "Hg10 mi
8:55 PM66 °FSunny.No wind37%30.04 "Hg10 mi
8:35 PM66 °FSunny.No wind37%30.04 "Hg10 mi
8:15 PM68 °FSunny.No wind35%30.04 "Hg10 mi
7:55 PM72 °FSunny.7 mph31%30.03 "Hg10 mi
7:35 PM73 °FSunny.8 mph31%30.03 "Hg10 mi
7:15 PM73 °FSunny.8 mph29%30.03 "Hg10 mi
6:55 PM75 °FSunny.8 mph27%30.03 "Hg10 mi
6:35 PM75 °FSunny.12 mph27%30.03 "Hg10 mi
6:15 PM79 °FPassing clouds.10 mph24%30.03 "Hg10 mi
5:55 PM79 °FPassing clouds.12 mph23%30.03 "Hg10 mi
4:55 PM79 °FPassing clouds.8 mph23%30.03 "Hg10 mi
4:35 PM81 °FSunny.6 mph21%30.03 "Hg10 mi
3:55 PM79 °FSunny.12 mph23%30.04 "Hg10 mi
3:35 PM79 °FSunny.3 mph23%30.04 "Hg10 mi
3:15 PM79 °FSunny.10 mph23%30.05 "Hg10 mi
2:55 PM79 °FSunny.8 mph23%30.05 "Hg10 mi
2:35 PM79 °FSunny.14 mph24%30.05 "Hg10 mi
2:15 PM79 °FSunny.12 mph23%30.06 "Hg10 mi
1:55 PM79 °FSunny.14 mph24%30.06 "Hg10 mi
1:35 PM77 °FSunny.8 mph24%30.06 "Hg10 mi
1:15 PM77 °FSunny.7 mph24%30.06 "Hg10 mi
Weather by CustomWeather, © 2016

See weather overviewHow to use our weather pages